Location: Black Creek
(40.9000°S, 175.5500°E)
Time: 09:21:47
(UTC+00:00)

Explorer 7 - Pass Details

Date: 16 November 2024
Orbit: 455 x 598 km, 50.3° (Epoch: 07 December)

Event Time Altitude Azimuth Distance (km) Brightness Sun altitude
Rises 08:16:31 0° 237° (WSW) 2,613 12.6 -10.5°
Reaches altitude 10° 08:18:46 10° 237° (WSW) 1,701 10.9 -10.9°
Maximum altitude 08:22:37 90° 147° (SSE) 487 6.5 -11.4°
Enters shadow 08:25:11 19° 56° (NE) 1,189 7.9 -11.8°
